Weather History for Winfield, KS

Change the Weather History Date:

Sunday, August 25, 2013

  Actual Average Record
Temperature  
Mean Temperature 82 °F -  
Max Temperature 91 °F 90 °F 106 °F (2006)
Min Temperature 73 °F 67 °F 54 °F (2010)
Cooling Degree Days 17    
Growing Degree Days 32 (Base 50)    
Moisture  
Dew Point 71 °F    
Average Humidity 73    
Maximum Humidity 90    
Minimum Humidity 48    
Precipitation  
Precipitation 0.00 in - - ()
Sea Level Pressure  
Sea Level Pressure 30.13 in    
Wind  
Wind Speed 6 mph (SSE)    
Max Wind Speed 14 mph    
Max Gust Speed 17 mph    
Visibility 9 miles    
Events      
Averages and records for this station are not official NWS values.
T = Trace of Precipitation, MM = Missing Value Source: NWS Daily Summary

Daily Weather History Graph

Daily Weather History Graph

Search for Another Location

Airport:

Trip Planner

Search our weather history database for the weather conditions in past years. The results will help you decide how hot, cold, wet, or windy it might be!

Date:

Astronomy

Aug. 25, 2013 Rise Set
Actual Time 6:53 AM CDT 8:06 PM CDT
Civil Twilight 6:26 AM CDT 8:33 PM CDT
Nautical Twilight 5:54 AM CDT 9:05 PM CDT
Astronomical Twilight 5:20 AM CDT 9:38 PM CDT
Moon 10:47 PM CDT (8/25) 11:48 AM CDT (8/25)
Length of Visible Light 14h 07m
Length of Day
13h 13m
Waning Gibbous, 75% of the Moon is Illuminated
Aug 25
Waning Gibbous
Aug 28
Last Quarter
Sep 5
New
Sep 12
First Quarter
Sep 19
Full

Hourly Weather History & Observations

Time (CDT) Temp. Heat Index Dew Point Humidity Pressure Visibility Wind Dir Wind Speed Gust Speed Precip Events Conditions
12:54 AM 75.0 °F - 71.1 °F 87% 30.10 in 9.0 mi SE 3.5 mph - N/A   Clear
1:54 AM 75.0 °F - 71.1 °F 87% 30.10 in 9.0 mi SE 4.6 mph - N/A   Clear
2:54 AM 73.0 °F - 70.0 °F 90% 30.11 in 9.0 mi SE 3.5 mph - N/A   Clear
3:54 AM 73.9 °F - 70.0 °F 87% 30.11 in 9.0 mi SSE 6.9 mph - N/A   Clear
4:54 AM 73.9 °F - 70.0 °F 87% 30.12 in 9.0 mi SE 5.8 mph - N/A   Clear
5:54 AM 73.0 °F - 70.0 °F 90% 30.13 in 8.0 mi SSE 3.5 mph - N/A   Clear
6:54 AM 73.0 °F - 70.0 °F 90% 30.14 in 8.0 mi SE 5.8 mph - N/A   Clear
7:54 AM 75.0 °F - 71.1 °F 87% 30.17 in 7.0 mi SE 5.8 mph - N/A   Clear
8:54 AM 78.1 °F - 72.0 °F 81% 30.17 in 8.0 mi SSE 9.2 mph - N/A   Clear
9:54 AM 82.0 °F 87.4 °F 73.0 °F 74% 30.17 in 10.0 mi South 8.1 mph - N/A   Clear
10:54 AM 84.9 °F 90.7 °F 72.0 °F 65% 30.17 in 10.0 mi South 10.4 mph - N/A   Clear
11:54 AM 87.1 °F 94.5 °F 73.0 °F 63% 30.16 in 10.0 mi SSW 8.1 mph - N/A   Clear
12:54 PM 90.0 °F 99.0 °F 73.9 °F 59% 30.14 in 10.0 mi South 9.2 mph - N/A   Clear
1:54 PM 91.0 °F 99.3 °F 73.0 °F 55% 30.13 in 10.0 mi South 6.9 mph 17.3 mph N/A   Clear
2:54 PM 91.9 °F 100.7 °F 73.0 °F 54% 30.12 in 10.0 mi South 9.2 mph - N/A   Partly Cloudy
3:54 PM 91.9 °F 99.5 °F 72.0 °F 52% 30.09 in 10.0 mi SSE 9.2 mph - N/A   Partly Cloudy
4:54 PM 91.0 °F 95.6 °F 69.1 °F 48% 30.09 in 10.0 mi SE 10.4 mph - N/A   Clear
5:54 PM 90.0 °F 95.4 °F 70.0 °F 52% 30.09 in 10.0 mi South 13.8 mph - N/A   Clear
6:54 PM 88.0 °F 93.8 °F 71.1 °F 57% 30.09 in 10.0 mi SSE 9.2 mph 17.3 mph N/A   Clear
7:54 PM 84.0 °F 89.0 °F 71.1 °F 65% 30.09 in 10.0 mi SE 5.8 mph - N/A   Clear
8:54 PM 82.0 °F 86.7 °F 72.0 °F 71% 30.11 in 10.0 mi SE 6.9 mph - N/A   Clear
9:54 PM 78.1 °F - 72.0 °F 81% 30.13 in 10.0 mi SSE 4.6 mph - N/A   Clear
10:54 PM 77.0 °F - 72.0 °F 84% 30.14 in 10.0 mi SE 3.5 mph - N/A   Clear
11:54 PM 75.9 °F - 71.1 °F 85% 30.14 in 10.0 mi SE 5.8 mph - N/A   Clear